Total_Precipitation_Accumulation
0.07 0.13 0.15 0.13 0.13 0.14 0.12 0.08 0.05 0.02 0.01 0.00 0.00 0.00 0.00 0.00 0.00 0.00 0.00 0.00 0.00 0.00 0.00 0.00 0.00 0.01 0.05 0.14 0.23 0.37 0.65 0.95 1.00 0.73 0.52 0.40 0.29 0.22 0.18 0.16 0.22 0.32 0.31 0.25
0.02 0.05 0.07 0.07 0.08 0.10 0.12 0.10 0.05 0.02 0.00 0.00 0.00 0.00 0.00 0.00 0.00 0.00 0.00 0.00 0.00 0.00 0.00 0.00 0.00 0.02 0.07 0.20 0.34 0.45 0.65 0.94 0.96 0.78 0.60 0.50 0.39 0.32 0.25 0.20 0.21 0.31 0.33 0.37
0.01 0.01 0.02 0.03 0.06 0.07 0.08 0.07 0.04 0.02 0.00 0.00 0.00 0.00 0.00 0.00 0.00 0.00 0.00 0.00 0.00 0.00 0.00 0.00 0.00 0.01 0.04 0.13 0.24 0.37 0.47 0.59 0.64 0.61 0.54 0.52 0.44 0.36 0.30 0.23 0.21 0.29 0.32 0.38
0.00 0.00 0.01 0.02 0.02 0.03 0.03 0.02 0.01 0.00 0.00 0.00 0.00 0.00 0.00 0.00 0.00 0.00 0.00 0.00 0.00 0.00 0.00 0.00 0.00 0.00 0.02 0.05 0.11 0.20 0.27 0.33 0.35 0.34 0.36 0.44 0.48 0.44 0.36 0.28 0.27 0.36 0.39 0.43
0.00 0.00 0.01 0.01 0.01 0.01 0.01 0.00 0.00 0.00 0.00 0.00 0.00 0.00 0.00 0.00 0.00 0.00 0.00 0.00 0.00 0.00 0.00 0.00 0.00 0.00 0.00 0.01 0.03 0.06 0.09 0.10 0.13 0.14 0.18 0.27 0.27 0.33 0.41 0.34 0.32 0.42 0.48 0.47
0.00 0.00 0.00 0.00 0.00 0.00 0.00 0.00 0.00 0.00 0.00 0.00 0.00 0.00 0.00 0.00 0.00 0.00 0.00 0.00 0.00 0.00 0.00 0.00 0.00 0.00 0.00 0.01 0.01 0.02 0.03 0.03 0.03 0.04 0.07 0.09 0.14 0.28 0.57 0.59 0.49 0.53 0.61 0.51
0.00 0.00 0.00 0.00 0.00 0.00 0.00 0.00 0.00 0.00 0.00 0.00 0.00 0.00 0.00 0.00 0.00 0.00 0.00 0.00 0.00 0.00 0.00 0.00 0.00 0.00 0.00 0.00 0.01 0.01 0.02 0.03 0.04 0.04 0.04 0.06 0.12 0.18 0.46 0.68 0.60 0.53 0.59 0.58
0.00 0.00 0.00 0.00 0.00 0.00 0.00 0.00 0.00 0.00 0.01 0.00 0.00 0.00 0.00 0.00 0.00 0.00 0.00 0.00 0.00 0.00 0.00 0.00 0.00 0.00 0.01 0.01 0.01 0.02 0.03 0.06 0.07 0.04 0.02 0.05 0.08 0.10 0.18 0.33 0.40 0.40 0.36 0.43
0.00 0.00 0.00 0.00 0.00 0.00 0.00 0.00 0.00 0.00 0.00 0.00 0.00 0.00 0.00 0.00 0.00 0.00 0.00 0.00 0.00 0.00 0.00 0.00 0.00 0.00 0.01 0.02 0.02 0.03 0.05 0.12 0.14 0.13 0.11 0.09 0.09 0.15 0.21 0.22 0.28 0.41 0.41 0.40
0.01 0.00 0.00 0.00 0.00 0.00 0.00 0.00 0.00 0.00 0.00 0.00 0.00 0.00 0.00 0.00 0.00 0.00 0.00 0.00 0.00 0.00 0.00 0.00 0.00 0.00 0.01 0.02 0.03 0.02 0.04 0.10 0.23 0.34 0.31 0.24 0.23 0.28 0.50 0.54 0.34 0.33 0.41 0.41
0.09 0.05 0.01 0.01 0.02 0.02 0.01 0.01 0.01 0.01 0.00 0.01 0.02 0.01 0.00 0.01 0.00 0.00 0.00 0.00 0.00 0.00 0.00 0.00 0.00 0.01 0.02 0.02 0.01 0.01 0.02 0.08 0.14 0.18 0.19 0.22 0.30 0.39 0.60 0.79 0.67 0.46 0.37 0.33
0.13 0.12 0.06 0.04 0.05 0.06 0.05 0.07 0.08 0.07 0.05 0.05 0.09 0.03 0.00 0.01 0.01 0.01 0.00 0.00 0.00 0.00 0.00 0.00 0.00 0.01 0.01 0.01 0.01 0.00 0.01 0.05 0.11 0.12 0.09 0.11 0.20 0.32 0.37 0.40 0.45 0.36 0.22 0.16
0.15 0.23 0.18 0.10 0.09 0.06 0.09 0.13 0.15 0.14 0.12 0.08 0.09 0.03 0.01 0.02 0.02 0.02 0.01 0.00 0.01 0.01 0.00 0.00 0.00 0.00 0.00 0.00 0.00 0.00 0.00 0.01 0.02 0.05 0.07 0.08 0.08 0.12 0.13 0.10 0.09 0.11 0.11 0.08
0.15 0.20 0.23 0.15 0.09 0.07 0.08 0.10 0.14 0.19 0.20 0.14 0.07 0.04 0.04 0.04 0.03 0.02 0.02 0.01 0.01 0.01 0.01 0.01 0.00 0.00 0.00 0.00 0.00 0.00 0.00 0.01 0.02 0.02 0.04 0.05 0.05 0.05 0.04 0.03 0.03 0.04 0.04 0.04
0.14 0.12 0.09 0.06 0.04 0.04 0.04 0.04 0.08 0.11 0.13 0.14 0.06 0.04 0.03 0.04 0.04 0.03 0.02 0.02 0.01 0.01 0.01 0.01 0.00 0.00 0.00 0.01 0.01 0.01 0.02 0.04 0.04 0.02 0.02 0.03 0.04 0.05 0.04 0.03 0.02 0.02 0.03 0.03
0.12 0.12 0.09 0.05 0.04 0.03 0.02 0.01 0.02 0.03 0.04 0.04 0.04 0.02 0.02 0.03 0.05 0.04 0.03 0.02 0.02 0.01 0.01 0.01 0.00 0.00 0.01 0.02 0.03 0.04 0.06 0.11 0.10 0.05 0.04 0.07 0.07 0.05 0.04 0.03 0.03 0.03 0.03 0.04
0.11 0.18 0.21 0.15 0.09 0.05 0.02 0.01 0.01 0.01 0.01 0.02 0.02 0.01 0.02 0.04 0.05 0.04 0.03 0.02 0.01 0.01 0.01 0.00 0.00 0.01 0.02 0.04 0.07 0.08 0.11 0.16 0.13 0.08 0.07 0.09 0.08 0.07 0.08 0.08 0.05 0.04 0.06 0.06
0.09 0.17 0.21 0.15 0.12 0.07 0.01 0.01 0.01 0.01 0.01 0.03 0.03 0.02 0.04 0.07 0.06 0.04 0.02 0.01 0.01 0.00 0.00 0.00 0.00 0.00 0.01 0.03 0.06 0.10 0.13 0.12 0.11 0.11 0.10 0.12 0.12 0.13 0.15 0.12 0.08 0.07 0.06 0.05
0.10 0.16 0.21 0.15 0.10 0.04 0.01 0.00 0.01 0.01 0.01 0.01 0.02 0.04 0.06 0.06 0.03 0.01 0.00 0.00 0.00 0.00 0.00 0.00 0.00 0.00 0.00 0.00 0.02 0.04 0.06 0.08 0.10 0.11 0.13 0.17 0.19 0.20 0.18 0.15 0.14 0.12 0.07 0.06
0.15 0.18 0.26 0.24 0.26 0.12 0.01 0.01 0.01 0.00 0.00 0.00 0.01 0.02 0.02 0.02 0.01 0.00 0.00 0.00 0.00 0.00 0.00 0.00 0.00 0.00 0.00 0.00 0.00 0.01 0.03 0.06 0.09 0.13 0.17 0.22 0.24 0.26 0.26 0.27 0.25 0.21 0.14 0.08
0.16 0.18 0.23 0.27 0.35 0.16 0.03 0.01 0.01 0.01 0.00 0.00 0.00 0.00 0.00 0.00 0.00 0.00 0.00 0.00 0.00 0.00 0.00 0.00 0.00 0.00 0.00 0.00 0.00 0.02 0.04 0.06 0.07 0.09 0.14 0.20 0.26 0.32 0.37 0.39 0.37 0.35 0.28 0.20
0.19 0.19 0.17 0.20 0.24 0.16 0.05 0.03 0.01 0.01 0.00 0.00 0.00 0.00 0.00 0.00 0.00 0.00 0.00 0.00 0.00 0.00 0.00 0.00 0.00 0.00 0.00 0.00 0.00 0.00 0.02 0.03 0.03 0.05 0.10 0.16 0.24 0.31 0.38 0.43 0.42 0.39 0.36 0.30
0.24 0.25 0.25 0.29 0.31 0.15 0.08 0.03 0.01 0.00 0.00 0.00 0.00 0.00 0.00 0.00 0.00 0.00 0.00 0.00 0.00 0.00 0.00 0.00 0.00 0.00 0.00 0.00 0.00 0.00 0.00 0.00 0.00 0.02 0.05 0.10 0.14 0.18 0.22 0.26 0.32 0.37 0.38 0.33
0.14 0.16 0.21 0.29 0.28 0.14 0.07 0.03 0.01 0.00 0.00 0.00 0.00 0.00 0.00 0.00 0.00 0.00 0.00 0.00 0.00 0.00 0.00 0.00 0.00 0.00 0.00 0.00 0.00 0.00 0.00 0.00 0.00 0.01 0.02 0.04 0.05 0.05 0.08 0.15 0.22 0.27 0.30 0.30
0.10 0.12 0.17 0.24 0.25 0.13 0.05 0.02 0.01 0.00 0.00 0.00 0.00 0.00 0.00 0.00 0.00 0.00 0.00 0.00 0.00 0.00 0.00 0.00 0.00 0.00 0.00 0.00 0.00 0.00 0.00 0.00 0.01 0.01 0.01 0.01 0.03 0.04 0.06 0.12 0.18 0.21 0.24 0.21
0.07 0.10 0.16 0.23 0.22 0.16 0.06 0.02 0.01 0.01 0.00 0.00 0.00 0.00 0.00 0.00 0.00 0.00 0.00 0.00 0.00 0.00 0.00 0.00 0.00 0.00 0.00 0.00 0.00 0.01 0.03 0.01 0.04 0.06 0.02 0.02 0.02 0.04 0.06 0.08 0.09 0.08 0.10 0.07